TimeCDT,TemperatureF,Dew PointF,Humidity,Sea Level PressureIn,VisibilityMPH,Wind Direction,Wind SpeedMPH,Gust SpeedMPH,PrecipitationIn,Events,Conditions,WindDirDegrees,DateUTC
12:56 AM,66.0,57.9,75,29.96,10.0,Calm,Calm,-,N/A,,Clear,0,2012-10-03 05:56:00
1:56 AM,64.9,59.0,81,29.96,10.0,Calm,Calm,-,N/A,,Clear,0,2012-10-03 06:56:00
2:56 AM,66.0,61.0,84,29.94,10.0,ENE,3.5,-,N/A,,Clear,70,2012-10-03 07:56:00
3:56 AM,66.0,62.1,87,29.94,10.0,ENE,3.5,-,N/A,,Clear,70,2012-10-03 08:56:00
4:56 AM,66.9,62.1,84,29.94,10.0,East,3.5,-,N/A,,Clear,90,2012-10-03 09:56:00
5:56 AM,68.0,64.0,87,29.96,10.0,WSW,3.5,-,N/A,,Clear,240,2012-10-03 10:56:00
6:56 AM,64.0,60.1,87,29.97,10.0,WSW,8.1,-,N/A,,Partly Cloudy,250,2012-10-03 11:56:00
7:56 AM,66.0,62.1,87,29.98,10.0,WSW,5.8,-,N/A,,Partly Cloudy,250,2012-10-03 12:56:00
8:56 AM,72.0,62.1,71,29.99,10.0,Calm,Calm,-,N/A,,Partly Cloudy,0,2012-10-03 13:56:00
9:56 AM,79.0,63.0,58,30.01,10.0,SW,3.5,-,N/A,,Partly Cloudy,220,2012-10-03 14:56:00
10:56 AM,82.9,64.0,53,30.00,10.0,South,8.1,-,N/A,,Partly Cloudy,190,2012-10-03 15:56:00
11:56 AM,84.0,64.9,53,30.00,10.0,South,10.4,-,N/A,,Partly Cloudy,170,2012-10-03 16:56:00
12:56 PM,86.0,64.0,48,29.98,10.0,SSE,13.8,18.4,N/A,,Partly Cloudy,160,2012-10-03 17:56:00
1:56 PM,86.0,64.0,48,29.96,10.0,SSE,17.3,-,N/A,,Partly Cloudy,150,2012-10-03 18:56:00
2:56 PM,86.0,66.0,51,29.95,10.0,SSE,16.1,-,N/A,,Partly Cloudy,150,2012-10-03 19:56:00
3:56 PM,86.0,69.1,57,29.94,10.0,SSE,19.6,26.5,N/A,,Partly Cloudy,150,2012-10-03 20:56:00
4:56 PM,84.9,70.0,61,29.94,10.0,SE,16.1,25.3,N/A,,Partly Cloudy,140,2012-10-03 21:56:00
5:56 PM,82.9,71.1,67,29.94,10.0,SE,17.3,25.3,N/A,,Partly Cloudy,140,2012-10-03 22:56:00
6:56 PM,82.0,72.0,71,29.94,10.0,SE,16.1,23.0,N/A,,Clear,140,2012-10-03 23:56:00
7:56 PM,81.0,73.0,77,29.95,10.0,SE,12.7,-,N/A,,Clear,140,2012-10-04 00:56:00
8:56 PM,81.0,73.9,79,29.96,10.0,SE,16.1,-,N/A,,Clear,140,2012-10-04 01:56:00
9:56 PM,81.0,73.9,79,29.98,10.0,SE,16.1,-,N/A,,Clear,140,2012-10-04 02:56:00
10:56 PM,81.0,73.9,79,29.99,10.0,SSE,17.3,-,N/A,,Clear,150,2012-10-04 03:56:00
11:56 PM,81.0,73.9,79,29.99,10.0,SSE,17.3,25.3,N/A,,Clear,150,2012-10-04 04:56:00